軌道要素
Epoch 2022 Jan. 21.0 TT = JDT 2459600.5
T 2021 Mar. 24.88135 TT Rudenko
q 4.3266436 (2000.0) P Q
z -0.0016953 Peri. 311.19278 +0.57347254 +0.80895105
+/-0.0000016 Node 350.54674 -0.28329925 +0.04769363
e 1.0073350 Incl. 51.94868 -0.76868120 +0.58593815
From 754 observations 2020 Mar. 16-2022 Jan. 22, mean residual 0".5.
|